Location: Betpouey
(42.8833°N, 0.0333°E)
Time: 22:29:16
(UTC+00:00)

H-2A R/B - Pass Details

Date: 01 December 2020
Orbit: 733 x 836 km, 98.2° (Epoch: 19 January)

Event Time Altitude Azimuth Distance (km) Brightness Sun altitude
Rises 19:07:17 0° 172° (S) 3,323 5.3 -28.8°
Enters shadow 19:08:50 - 174° (S) 2,707 4.8 -29.1°
Exits shadow 19:16:04 51° 316° (NW) 989 2.7 -30.4°
Drops below altitude 10° 19:20:01 10° 341° (NNW) 2,331 4.6 -31.1°
Sets 19:22:20 0° 345° (NNW) 3,247 5.4 -31.5°
